Location: Rowland
(34.5359°N, 79.2929°W)
Time: 21:12:23
(UTC+00:00)

A-11 Canister half - Pass Details

Date: 11 October 2022
Orbit: 1516 x 1684 km, 47.2° (Epoch: 28 November)

Event Time Altitude Azimuth Distance (km) Brightness Sun altitude
Rises 00:28:14 0° 254° (WSW) 4,883 12.8 -21.2°
Reaches altitude 10° 00:31:32 10° 259° (W) 3,878 12.1 -21.9°
Maximum altitude 00:41:10 55° 336° (NNW) 1,877 9.5 -23.9°
Enters shadow 00:48:03 20° 47° (NE) 3,048 10.2 -25.3°
